Location: Peebles
(55.6412°N, 3.1714°W)
Time: 05:21:58
(UTC+00:00)

IRAS Rocket - Visible Passes

Search period start: 28 January 2022 00:00
Search period end: 07 February 2022 00:00
Orbit: 848 x 877 km, 100.1° (Epoch: 27 January)

Date Brightness Start Highest point End Pass type
(mag) Time Alt. Az. Time Alt. Az. Time Alt. Az.
28 Jan 6.6 04:11:25 10° E 04:15:18 20° NE 04:19:11 10° N visible
28 Jan 4.6 05:49:41 10° SSE 05:55:13 68° ENE 06:00:49 10° NNW visible
28 Jan 5.2 07:31:45 10° SSW 07:36:29 28° W 07:41:16 10° NW visible
28 Jan 5.7 19:55:24 25° S 19:55:24 25° S 19:57:40 10° S visible
28 Jan 7.0 21:37:38 10° WSW 21:37:38 10° WSW 21:25:11 - NNE visible
29 Jan 6.7 04:03:26 10° E 04:07:03 18° NE 04:10:40 10° N visible
29 Jan 4.8 05:41:23 10° SE 05:46:52 60° ENE 05:52:24 10° NNW visible
29 Jan 5.0 07:23:04 10° SSW 07:28:00 32° W 07:33:01 10° NNW visible
29 Jan 5.5 19:46:45 26° S 19:46:45 26° S 19:49:11 10° S visible
29 Jan 6.8 21:28:59 12° WSW 21:28:59 12° WSW 21:29:23 10° WSW visible
30 Jan 6.8 03:55:30 10° ENE 03:58:49 16° NE 04:02:09 10° N visible
30 Jan 5.0 05:33:08 10° SE 05:38:32 53° ENE 05:44:00 10° NNW visible
30 Jan 4.9 07:14:25 10° SSW 07:19:32 36° W 07:24:44 10° NNW visible
30 Jan 5.5 19:38:06 27° SSE 19:38:06 27° SSE 19:40:40 10° S visible
30 Jan 6.6 21:20:20 14° WSW 21:20:20 14° WSW 21:21:12 10° SW visible
31 Jan 6.9 03:47:36 10° ENE 03:50:36 15° NE 03:53:36 10° N visible
31 Jan 5.2 05:24:52 10° SE 05:30:11 47° ENE 05:35:34 10° NNW visible
31 Jan 4.7 07:05:49 10° S 07:11:05 41° W 07:16:25 10° NNW visible
31 Jan 5.4 19:29:25 27° SSE 19:29:25 27° SSE 19:32:07 10° S visible
31 Jan 6.4 21:11:39 17° SW 21:11:39 17° SW 21:13:00 10° SW visible
01 Feb 7.0 03:39:45 10° ENE 03:42:23 14° NE 03:45:01 10° N visible
01 Feb 5.4 05:16:40 10° SE 05:21:52 42° ENE 05:27:08 10° N visible
01 Feb 4.5 06:57:15 10° S 07:02:39 47° W 07:08:06 10° NNW visible
01 Feb 5.4 19:20:43 26° SE 19:20:43 26° SE 19:23:32 10° SSE visible
01 Feb 6.2 21:02:58 21° SW 21:02:58 21° SW 21:04:46 10° SW visible
01 Feb7.222:45:12W22:45:12W22:35:03Nvisible
02 Feb 7.0 03:31:58 10° ENE 03:34:10 12° NNE 03:36:23 10° N visible
02 Feb 5.6 05:08:28 10° ESE 05:13:34 37° NE 05:18:42 10° N visible
02 Feb 4.4 06:48:44 10° S 06:54:13 54° WSW 06:59:46 10° NNW visible
02 Feb 5.4 19:12:01 25° SE 19:12:01 25° SE 19:14:55 10° SSE visible
02 Feb 5.9 20:54:15 25° SW 20:54:15 25° SW 20:56:30 10° SW visible
02 Feb7.122:36:29W22:36:29W22:27:01Nvisible
03 Feb 7.1 03:24:17 10° NE 03:25:58 11° NNE 03:27:40 10° NNE visible
03 Feb 5.8 05:00:19 10° ESE 05:05:16 34° NE 05:10:15 10° N visible
03 Feb 4.3 06:40:15 10° S 06:45:47 62° WSW 06:51:25 10° NNW visible
03 Feb 5.4 19:03:16 24° SE 19:03:16 24° SE 19:06:14 10° SSE visible
03 Feb 5.6 20:45:31 29° SW 20:45:31 29° SW 20:48:12 10° SW visible
03 Feb 7.0 22:18:40 10° N 22:27:44 - W 22:19:01 11° N visible
04 Feb 7.2 03:16:51 10° NE 03:17:47 10° NNE 03:18:43 10° NNE visible
04 Feb 6.0 04:52:10 10° ESE 04:56:59 30° NE 05:01:48 10° N visible
04 Feb 4.2 06:31:48 10° S 06:37:23 71° WSW 06:43:03 10° NNW visible
04 Feb 5.4 18:54:30 22° ESE 18:54:30 22° ESE 18:57:31 10° SSE visible
04 Feb 5.3 20:28:38 10° NNE 20:36:44 35° SW 20:39:54 10° SSW visible
04 Feb 6.8 22:10:11 10° N 22:18:58 - W 22:11:04 13° N visible
05 Feb 6.2 04:44:04 10° ESE 04:48:42 27° NE 04:53:21 10° N visible
05 Feb 4.2 06:23:23 10° SSE 06:29:00 81° WSW 06:34:41 10° NNW visible
05 Feb 5.5 18:45:41 21° ESE 18:45:41 21° ESE 18:48:44 10° SE visible
05 Feb 5.0 20:20:14 10° NNE 20:27:54 43° SSW 20:31:33 10° SSW visible
05 Feb 6.7 22:01:42 10° N 22:10:08 11° W 22:10:22 10° W visible
06 Feb 6.3 04:35:59 10° E 04:40:25 25° NE 04:44:52 10° N visible
06 Feb 4.3 06:14:59 10° SSE 06:20:36 90° ENE 06:26:18 10° NNW visible
06 Feb 5.5 18:36:47 19° E 18:36:47 19° E 18:39:53 10° SE visible
06 Feb 4.6 20:11:50 10° NNE 20:19:01 52° SSW 20:23:10 10° SSW visible
06 Feb 6.4 21:53:13 10° N 22:01:13 15° W 22:02:19 10° WSW visible
